User: anonymous   Login
Location: Unspecified
(0.0000°N, 0.0000°E)
Time: 00:04:07
(UTC+00:00)
Language:

Transit 2A - Orbit

View from above orbital plane
View from above orbital plane
View from above satellite
View from above satellite

Ground track
Ground track

The orbit data is extracted from the following two-line orbital elements,

1    45U 60007A   18346.23422845 -.00000053  00000-0  13767-4 0  9991
2    45  66.6956  38.7495 0256057 356.6674   3.2707 14.33620242 43404
Epoch (UTC): 12 December 2018 05:37:17
Eccentricity: 0.0256057
inclination: 66.6956°
perigee height: 596 km
apogee height: 963 km
right ascension of ascending node: 38.7495°
argument of perigee: 356.6674°
revolutions per day: 14.33620242
mean anomaly at epoch: 3.2707°
orbit number at epoch: 4340

The dashed part of the orbit path shows where the satellite is in the earth's shadow,  

DLR